Location: Lane
(33.5226°N, 79.8788°W)
Time: 17:01:17
(UTC+00:00)

Transit 2A - Pass Details

Date: 27 September 2022
Orbit: 598 x 959 km, 66.7° (Epoch: 06 December)

Event Time Altitude Azimuth Distance (km) Brightness Sun altitude
Rises 14:21:58 0° 341° (NNW) 2,975 8.7 36.9°
Reaches altitude 10° 14:24:16 10° 347° (NNW) 2,105 8.0 37.3°
Maximum altitude 14:28:51 46° 61° (ENE) 961 7.3 38.1°
Drops below altitude 10° 14:33:53 10° 135° (SE) 2,313 9.7 39.0°
Sets 14:36:30 0° 141° (SE) 3,301 10.1 39.4°
